Satellite-Ground Cal/Val Site Overpasses Predictions

Prediction of Satellite NPP Overpassing Cal/Val Site: Antarctic Dome C

Ground Cal/Val Site Location: Latitude: -75.10, Longitude: 123.35; Satellite-Ground Site NADIR distance within 100 km.

Table of predicted overpasses for the next 14.0 days since TLE Epoch: 10/22/2016
Interval Starting Time Ending Time Minimum Distance Time Minimum Distance (km)
1 10/25/2016 14:55:33 10/25/2016 14:56:02 10/25/2016 14:55:47 20.02
2 10/26/2016 14:36:52 10/26/2016 14:37:06 10/26/2016 14:36:59 86.97
3 10/27/2016 07:38:23 10/27/2016 07:38:50 10/27/2016 07:38:37 38.86
4 10/28/2016 07:19:38 10/28/2016 07:19:58 10/28/2016 07:19:48 71.05
5 10/30/2016 15:01:53 10/30/2016 15:02:17 10/30/2016 15:02:05 57.45
6 10/31/2016 14:43:02 10/31/2016 14:43:27 10/31/2016 14:43:15 51.68
7 11/01/2016 07:44:45 11/01/2016 07:45:04 11/01/2016 07:44:54 74.39
8 11/02/2016 07:25:51 11/02/2016 07:26:18 11/02/2016 07:26:04 33.49
9 11/04/2016 15:08:18 11/04/2016 15:08:26 11/04/2016 15:08:22 95.59


<
